Regional Weather Roundup
Issued by NWS

Home | Current Version | Previous Version | Text Only | Print | Product List | Glossary Off
Versions: 1 2 3 4 5 6 7 8 9 10 11 12 13 14 15 16 17 18 19 20 21 22 23 24 25 26 27 28 29 30 31 32 33 34 35 36 37 38 39 40 41 42 43 44 45 46 47 48 49 50

000
ASUS43 KIND 271909
RWRIN

WEATHER ROUNDUP FOR INDIANA
NATIONAL WEATHER SERVICE INDIANAPOLIS IN
300 PM EDT WED JUL 27 2016

NOTE: "FAIR" INDICATES FEW OR NO CLOUDS BELOW 12,000 FEET WITH NO
SIGNIFICANT WEATHER AND/OR OBSTRUCTIONS TO VISIBILITY.

* - STATION DOES NOT REPORT WEATHER SUCH AS PRECIPITATION OR FOG.

+ - STATION NOT QUALITY CONTROLLED BY THE NATIONAL WEATHER SERVICE.
    USE DATA WITH CAUTION...ESPECIALLY DEWPOINT AND RELATIVE
    HUMIDITY OBSERVATIONS.

INZ001>003-010>013-019-020-272000-
NORTHWEST INDIANA

CITY           SKY/WX    TMP DP  RH WIND       PRES   REMARKS
GARY /AIRPORT/ MOSUNNY   88  68  51 N6        30.00F
KNOX *+        SUNNY     84  54  34 CALM      30.00F
LA PORTE +     MOSUNNY   87  66  49 SW5       30.01F
MICHIGAN CITY+ SUNNY     84  64  51 N6        30.01F
MONTICELLO +   MOSUNNY   84  61  45 CALM      30.00F
RENSSELAER +   SUNNY     82  64  54 W3        30.01F
VALPARAISO     SUNNY     85  65  51 VRB7      30.01F

$$

LMZ046-743>745-272000-
SOUTHERN LAKE MICHIGAN

STATION/POSITION TIME  TEMP    WIND        PRES    WAVE
                       AIR SEA DIR/SP/G            HT
                 (UTC) (F)     (DEG/KT/KT) (MB)    (FT)
BURNS HARBOR     1800   78      20/  6/  7 1016.9F
MICHIGAN CITY    1800   81     330/  6/  6   N/A
5NW MICH CITY    1900   78 78  360/  4/  6   N/A     0

$$

INZ004-005-014>016-021>024-272000-
NORTH CENTRAL INDIANA

CITY           SKY/WX    TMP DP  RH WIND       PRES   REMARKS
ELKHART        SUNNY     86  68  54 MISG      30.01F
GOSHEN         SUNNY     86  59  39 SW7       30.00F
LOGANSPORT +   MOSUNNY   84  63  48 W5        30.02F
PERU/GRISSOM   SUNNY     87  65  49 VRB7      30.00F
ROCHESTER +    MOSUNNY   86  64  48 CALM      30.02F
SOUTH BEND     MOSUNNY   85  66  53 NW7       30.01F
WARSAW +       MOSUNNY   84  64  51 NW6       30.01F

$$

INZ006>009-017-018-025>027-272000-
NORTHEAST INDIANA

CITY           SKY/WX    TMP DP  RH WIND       PRES   REMARKS
ANGOLA *+        N/A     88  63  42 VRB3      30.00F
AUBURN +       SUNNY     90  55  31 CALM      30.00F
FORT WAYNE     MOSUNNY   87  57  35 SW9       30.00F
HUNTINGTON +   MOSUNNY   84  63  49 W3        30.00F

$$

INZ028-029-035-036-043>045-051>053-272000-
WEST CENTRAL INDIANA

CITY           SKY/WX    TMP DP  RH WIND       PRES   REMARKS
CRAWFORDSVL +  MOSUNNY   83  62  49 CALM      30.02S
GREENCASTLE +  MOSUNNY   82  72  69 CALM      30.01F HAZE
LAFAYETTE      MOSUNNY   86  64  47 CALM      30.00F
TERRE HAUTE    SUNNY     87  66  49 S3        30.00F

$$

INZ030>032-037>040-046>048-054>057-064-065-272000-
CENTRAL INDIANA

CITY           SKY/WX    TMP DP  RH WIND       PRES   REMARKS
COLUMBUS       MOSUNNY   82  73  74 N6        30.00F
FISHERS *+     SUNNY     86  68  54 N5        30.00
INDIANAPOLIS   MOSUNNY   88  64  44 W7        30.00S
-EAGLE CREEK   SUNNY     88  63  43 NW5       29.99F
KOKOMO *+      SUNNY     88  64  45 NW6       30.00F
MARION +       SUNNY     84  61  46 NW5       30.01F
MT COMFORT *+  MOSUNNY   84  64  51 NE5       30.01F
SHELBYVILLE    SUNNY     88  65  46 CALM      30.00F
ZIONSVILLE +   SUNNY     83  65  55 NW5       30.02F

$$

INZ033-034-041-042-049-050-058-059-272000-
EAST CENTRAL INDIANA

CITY           SKY/WX    TMP DP  RH WIND       PRES   REMARKS
MUNCIE         SUNNY     88  60  38 N8        30.00F

$$

INZ060-061-067>069-081>083-085>088-272000-
SOUTHWEST INDIANA

CITY           SKY/WX    TMP DP  RH WIND       PRES   REMARKS
EVANSVILLE     CLOUDY    89  73  59 CALM      29.96F HX  97
HUNTINGBURG *+ CLOUDY    81  73  78 NW9       29.98S THUNDER
WASHINGTON +   MOSUNNY   87  74  66 MISG      29.97F HX  95

$$

INZ062-063-066-070>080-084-089>092-272000-
SOUTH CENTRAL AND SOUTHEAST INDIANA

CITY           SKY/WX    TMP DP  RH WIND       PRES   REMARKS
BLOOMINGTON    MOSUNNY   85  69  58 CALM      30.00F
MADISON *+     MOSUNNY   88  70  55 NW3       30.02F
NORTH VERNON + CLOUDY    86  75  70 CALM      30.01S HX  95
SEYMOUR +      CLOUDY    90  72  55 CALM      29.98F HX  96

$$




USA.gov is the U.S. government's official web portal to all federal, state and local government web resources and services.